This is the latest recevied weather packets stored in our database for station/object W4FXD. If no packets are shown the sender has not sent any weather packets the latest 10 day(s).
| Time | Temp. | Humidity | Pressure | Rain* | Wind** | Luminosity | Snow |
|---|---|---|---|---|---|---|---|
| 1777917819 | 23.33° C | 52% | 1015.1 hPa | 0 mm | - | 759 W/m² | - |
| 1777917518 | 22.78° C | 52% | 1015 hPa | 0 mm | - | 730 W/m² | - |
| 1777917214 | 22.22° C | 52% | 1015.2 hPa | 0 mm | - | 727 W/m² | - |
| 1777916912 | 22.78° C | 51% | 1015 hPa | 0 mm | - | 730 W/m² | - |
| 1777916609 | 22.22° C | 53% | 1015.3 hPa | 0 mm | - | 742 W/m² | - |
| 1777916306 | 22.22° C | 53% | 1015.1 hPa | 0 mm | - | 775 W/m² | - |
| 1777916003 | 21.67° C | 53% | 1015.1 hPa | 0 mm | - | 781 W/m² | - |
| 1777915700 | 21.67° C | 53% | 1015.3 hPa | 0 mm | - | 776 W/m² | - |
| 1777915396 | 22.22° C | 52% | 1015.1 hPa | 0 mm | - | 810 W/m² | - |
| 1777915092 | 21.11° C | 54% | 1015.4 hPa | 0 mm | - | 810 W/m² | - |
| 1777914790 | 21.11° C | 54% | 1015.2 hPa | 0 mm | - | 743 W/m² | - |
| 1777914487 | 21.11° C | 56% | 1015.4 hPa | 0 mm | - | 737 W/m² | - |
| 1777914184 | 21.67° C | 53% | 1015.7 hPa | 0 mm | - | 789 W/m² | - |
| 1777913880 | 20.56° C | 56% | 1015.9 hPa | 0 mm | - | 789 W/m² | - |
| 1777913576 | 20° C | 53% | 1015.8 hPa | 0 mm | - | 780 W/m² | - |
| 1777913273 | 20.56° C | 55% | 1016 hPa | 0 mm | - | 780 W/m² | - |
| 1777912970 | 20° C | 54% | 1016.1 hPa | 0 mm | - | 669 W/m² | - |
| 1777912666 | 20° C | 56% | 1016.3 hPa | 0 mm | - | 804 W/m² | - |
| 1777912362 | 20° C | 55% | 1016.2 hPa | 0 mm | - | 806 W/m² | - |
| 1777912058 | 19.44° C | 56% | 1016.3 hPa | 0 mm | - | 770 W/m² | - |
| 1777911754 | 19.44° C | 56% | 1016.3 hPa | 0 mm | - | 812 W/m² | - |
| 1777911451 | 19.44° C | 55% | 1016.7 hPa | 0 mm | - | 715 W/m² | - |
| 1777911148 | 19.44° C | 54% | 1016.7 hPa | 0 mm | - | 835 W/m² | - |
| 1777910846 | 19.44° C | 55% | 1016.5 hPa | 0 mm | - | 785 W/m² | - |
| 1777910542 | 19.44° C | 54% | 1016.5 hPa | 0 mm | - | 842 W/m² | - |
* Rain latest hour (hover to see other rain measurements)
** Current wind speed in m/s (hover to see current wind gust speed)